TimePST,TemperatureF,Dew PointF,Humidity,Sea Level PressureIn,VisibilityMPH,Wind Direction,Wind SpeedMPH,Gust SpeedMPH,PrecipitationIn,Events,Conditions,WindDirDegrees,DateUTC
12:15 AM,50.0,50.0,100,29.99,0.5,East,3.5,-,N/A,Fog,Fog,100,2012-12-09 08:15:00
12:35 AM,50.0,50.0,100,29.99,1.0,Calm,Calm,-,N/A,,Overcast,0,2012-12-09 08:35:00
12:55 AM,48.2,48.2,100,30.00,0.8,North,3.5,-,N/A,,Overcast,360,2012-12-09 08:55:00
1:15 AM,48.2,48.2,100,30.00,0.2,East,3.5,-,N/A,Fog,Fog,90,2012-12-09 09:15:00
1:35 AM,48.2,48.2,100,30.01,1.2,Calm,Calm,-,N/A,,Overcast,0,2012-12-09 09:35:00
1:55 AM,50.0,50.0,100,30.01,1.5,Calm,Calm,-,N/A,,Overcast,0,2012-12-09 09:55:00
2:15 AM,50.0,50.0,100,30.01,1.2,Calm,Calm,-,N/A,,Overcast,0,2012-12-09 10:15:00
2:35 AM,50.0,50.0,100,30.01,1.0,NNE,3.5,-,N/A,,Overcast,30,2012-12-09 10:35:00
2:55 AM,50.0,50.0,100,30.01,1.5,Calm,Calm,-,N/A,,Overcast,0,2012-12-09 10:55:00
3:15 AM,50.0,50.0,100,30.01,2.0,Calm,Calm,-,N/A,,Overcast,0,2012-12-09 11:15:00
3:55 AM,48.2,48.2,100,30.00,2.5,NNE,3.5,-,N/A,,Overcast,30,2012-12-09 11:55:00
4:15 AM,48.2,48.2,100,30.01,3.0,NNE,5.8,-,N/A,,Overcast,30,2012-12-09 12:15:00
4:35 AM,48.2,48.2,100,30.01,2.5,NNE,6.9,-,N/A,,Overcast,30,2012-12-09 12:35:00
4:55 AM,48.2,48.2,100,30.01,1.2,ENE,6.9,-,N/A,,Overcast,70,2012-12-09 12:55:00
5:15 AM,46.4,46.4,100,30.01,0.8,NE,3.5,-,N/A,,Overcast,50,2012-12-09 13:15:00
7:47 AM,46.4,46.4,100,30.05,1.8,Calm,Calm,-,N/A,,Overcast,0,2012-12-09 15:47:00
8:55 AM,50.0,48.2,94,30.05,10.0,Calm,Calm,-,N/A,,Clear,0,2012-12-09 16:55:00
10:47 AM,62.6,42.8,48,30.05,20.0,Calm,Calm,-,N/A,,Partly Cloudy,0,2012-12-09 18:47:00
11:47 AM,69.8,41.0,35,30.03,20.0,Variable,5.8,-,N/A,,Partly Cloudy,0,2012-12-09 19:47:00
12:47 PM,73.4,39.2,29,30.00,20.0,Variable,5.8,-,N/A,,Partly Cloudy,0,2012-12-09 20:47:00
1:47 PM,71.6,46.4,41,29.99,20.0,Variable,6.9,-,N/A,,Partly Cloudy,0,2012-12-09 21:47:00
5:49 PM,57.2,44.6,63,30.07,12.0,West,6.9,-,N/A,,Clear,270,2012-12-10 01:49:00
8:15 PM,51.8,46.4,82,30.11,8.0,Calm,Calm,-,N/A,,Clear,0,2012-12-10 04:15:00
8:35 PM,50.0,46.4,87,30.12,8.0,WNW,4.6,-,N/A,,Clear,290,2012-12-10 04:35:00
8:55 PM,50.0,46.4,87,30.12,8.0,Calm,Calm,-,N/A,,Clear,0,2012-12-10 04:55:00
9:15 PM,48.2,46.4,93,30.13,7.0,NW,4.6,-,N/A,,Clear,310,2012-12-10 05:15:00
9:35 PM,48.2,46.4,93,30.13,6.0,WNW,3.5,-,N/A,,Clear,290,2012-12-10 05:35:00
9:55 PM,48.2,46.4,93,30.14,6.0,WNW,3.5,-,N/A,,Clear,290,2012-12-10 05:55:00
10:15 PM,48.2,46.4,93,30.14,7.0,North,4.6,-,N/A,,Clear,350,2012-12-10 06:15:00
10:35 PM,48.2,46.4,93,30.14,7.0,Calm,Calm,-,N/A,,Clear,0,2012-12-10 06:35:00
10:55 PM,48.2,46.4,93,30.14,7.0,Calm,Calm,-,N/A,,Clear,0,2012-12-10 06:55:00
11:15 PM,46.4,46.4,100,30.14,5.0,Calm,Calm,-,N/A,,Clear,0,2012-12-10 07:15:00
11:55 PM,46.4,46.4,100,30.14,5.0,Calm,Calm,-,N/A,,Clear,0,2012-12-10 07:55:00